This is the latest recevied weather packets stored in our database for station/object SQ9NFI-4. If no packets are shown the sender has not sent any weather packets the latest 10 day(s).
| Time | Temp. | Humidity | Pressure | Rain* | Wind** | Luminosity | Snow |
|---|---|---|---|---|---|---|---|
| 1777927605 | 11.67° C | 85% | 1014.2 hPa | 0 mm | - | 0 W/m² | - |
| 1777927305 | 11.67° C | 81% | 1014.2 hPa | 0 mm | - | 0 W/m² | - |
| 1777927005 | 11.67° C | 80% | 1014.2 hPa | 0 mm | - | 0 W/m² | - |
| 1777926705 | 12.22° C | 80% | 1014.2 hPa | 0 mm | - | 0 W/m² | - |
| 1777926405 | 12.78° C | 81% | 1014.2 hPa | 0 mm | - | 0 W/m² | - |
| 1777926105 | 12.78° C | 81% | 1014.2 hPa | 0 mm | - | 0 W/m² | - |
| 1777925805 | 12.78° C | 80% | 1014.2 hPa | 0 mm | - | 0 W/m² | - |
| 1777925505 | 13.33° C | 82% | 1013.9 hPa | 0 mm | - | 0 W/m² | - |
| 1777925205 | 13.33° C | 77% | 1013.9 hPa | 0 mm | - | 0 W/m² | - |
| 1777924905 | 13.33° C | 81% | 1013.9 hPa | 0 mm | - | 0 W/m² | - |
| 1777924605 | 13.33° C | 77% | 1013.9 hPa | 0 mm | - | 0 W/m² | - |
| 1777924304 | 13.33° C | 77% | 1013.9 hPa | 0 mm | - | 0 W/m² | - |
| 1777924005 | 13.33° C | 80% | 1013.9 hPa | 0 mm | - | 0 W/m² | - |
| 1777923704 | 13.89° C | 78% | 1013.9 hPa | 0 mm | - | 0 W/m² | - |
| 1777923404 | 13.89° C | 78% | 1013.9 hPa | 0 mm | - | 0 W/m² | - |
| 1777923105 | 14.44° C | 76% | 1013.9 hPa | 0 mm | - | 0 W/m² | - |
| 1777922804 | 14.44° C | 68% | 1013.9 hPa | 0 mm | - | 0 W/m² | - |
| 1777922504 | 14.44° C | 78% | 1013.9 hPa | 0 mm | - | 0 W/m² | - |
| 1777922204 | 14.44° C | 74% | 1013.9 hPa | 0 mm | - | 0 W/m² | - |
| 1777921905 | 15° C | 78% | 1013.9 hPa | 0 mm | - | 0 W/m² | - |
| 1777921604 | 15.56° C | 71% | 1013.9 hPa | 0 mm | - | 0 W/m² | - |
| 1777921305 | 15.56° C | 69% | 1013.9 hPa | 0 mm | - | 0 W/m² | - |
| 1777921005 | 15.56° C | 70% | 1013.9 hPa | 0 mm | - | 0 W/m² | - |
| 1777920705 | 16.11° C | 66% | 1013.9 hPa | 0 mm | - | 0 W/m² | - |
| 1777920405 | 16.67° C | 61% | 1013.6 hPa | 0 mm | - | 0 W/m² | - |
* Rain latest hour (hover to see other rain measurements)
** Current wind speed in m/s (hover to see current wind gust speed)